• en Suisse
  • Liste des pays
  • À 7 jours
  • Température de l'eau
  • Carte satellitaire
  • Carte météo
  • Widgets météo
  • user-avatar
    Se connecter

    Météo par heure à Shaftorka

    Ce jour, 17 Octobre, Mercredi

    Heure Température Précipitation Vent Pression Humidité
    00:00 +9°C° 0 mm 3 m/s 755 mmHg 81%
    01:00 +9°C° 0 mm 3 m/s 755 mmHg 82%
    02:00 +9°C° 0 mm 3 m/s 755 mmHg 83%
    03:00 +8°C° 0 mm 2 m/s 755 mmHg 86%
    04:00 +8°C° 0 mm 2 m/s 755 mmHg 88%
    05:00 +8°C° 0 mm 2 m/s 755 mmHg 89%
    06:00 +7°C° 0 mm 3 m/s 755 mmHg 90%
    07:00 +8°C° 0 mm 3 m/s 755 mmHg 86%
    08:00 +9°C° 0 mm 3 m/s 755 mmHg 82%
    09:00 +10°C° 0 mm 3 m/s 755 mmHg 78%
    10:00 +12°C° 0 mm 3 m/s 755 mmHg 73%
    11:00 +13°C° 0 mm 3 m/s 756 mmHg 68%
    12:00 +16°C° 0 mm 3 m/s 756 mmHg 64%
    13:00 +16°C° 0 mm 3 m/s 756 mmHg 63%
    14:00 +16°C° 0 mm 3 m/s 756 mmHg 62%
    15:00 +17°C° 0 mm 3 m/s 756 mmHg 62%
    16:00 +15°C° 0 mm 2 m/s 756 mmHg 68%
    17:00 +14°C° 0 mm 2 m/s 756 mmHg 75%
    18:00 +12°C° 0 mm 1 m/s 756 mmHg 82%
    19:00 +12°C° 0 mm 1 m/s 756 mmHg 84%
    20:00 +11°C° 0 mm 1 m/s 757 mmHg 87%
    21:00 +11°C° 0 mm 1 m/s 757 mmHg 90%
    22:00 +10°C° 0 mm 1 m/s 757 mmHg 91%
    23:00 +10°C° 0 mm 1 m/s 757 mmHg 92%

    Demain, 18 Octobre, Jeudi

    Heure Température Précipitation Vent Pression Humidité
    00:00 +10°C° 0 mm 1 m/s 757 mmHg 93%
    01:00 +9°C° 0 mm 1 m/s 757 mmHg 93%
    02:00 +9°C° 0 mm 1 m/s 757 mmHg 93%
    03:00 +9°C° 0 mm 1 m/s 757 mmHg 94%
    04:00 +9°C° 0 mm 1 m/s 757 mmHg 94%
    05:00 +9°C° 0 mm 1 m/s 757 mmHg 94%
    06:00 +8°C° 0 mm 1 m/s 757 mmHg 95%
    07:00 +8°C° 0 mm 2 m/s 756 mmHg 91%
    08:00 +9°C° 0 mm 2 m/s 756 mmHg 88%
    09:00 +10°C° 0 mm 2 m/s 756 mmHg 85%
    10:00 +13°C° 0 mm 2 m/s 756 mmHg 79%
    11:00 +14°C° 0 mm 2 m/s 756 mmHg 72%
    12:00 +16°C° 0 mm 3 m/s 756 mmHg 66%
    13:00 +16°C° 0 mm 3 m/s 755 mmHg 64%
    14:00 +16°C° 0 mm 3 m/s 755 mmHg 63%
    15:00 +17°C° 0 mm 3 m/s 755 mmHg 62%
    16:00 +14°C° 0 mm 3 m/s 754 mmHg 68%
    17:00 +13°C° 0 mm 3 m/s 754 mmHg 74%
    18:00 +12°C° 0 mm 2 m/s 754 mmHg 80%
    19:00 +12°C° 0 mm 2 m/s 754 mmHg 82%
    20:00 +10°C° 0 mm 2 m/s 754 mmHg 84%
    21:00 +10°C° 0 mm 2 m/s 754 mmHg 86%
    22:00 +10°C° 0 mm 2 m/s 754 mmHg 87%
    23:00 +9°C° 0 mm 2 m/s 753 mmHg 88%

    Après-demain, 19 Octobre, Vendredi

    Heure Température Précipitation Vent Pression Humidité
    00:00 +9°C° 0 mm 2 m/s 753 mmHg 90%
    01:00 +9°C° 0 mm 2 m/s 753 mmHg 90%
    02:00 +9°C° 0 mm 2 m/s 753 mmHg 91%
    03:00 +9°C° 0 mm 2 m/s 753 mmHg 91%
    04:00 +9°C° 0 mm 2 m/s 752 mmHg 92%
    05:00 +9°C° 0 mm 3 m/s 752 mmHg 92%
    06:00 +9°C° 0 mm 3 m/s 752 mmHg 93%
    07:00 +10°C° 0 mm 3 m/s 752 mmHg 88%
    08:00 +11°C° 0 mm 3 m/s 752 mmHg 84%
    09:00 +12°C° 0 mm 3 m/s 752 mmHg 80%
    10:00 +13°C° 0 mm 4 m/s 751 mmHg 74%
    11:00 +15°C° 0 mm 4 m/s 751 mmHg 69%
    12:00 +17°C° 0 mm 4 m/s 751 mmHg 63%
    13:00 +18°C° 0 mm 4 m/s 750 mmHg 62%
    14:00 +18°C° 0 mm 4 m/s 750 mmHg 60%
    15:00 +18°C° 0 mm 4 m/s 750 mmHg 58%
    16:00 +17°C° 0 mm 4 m/s 749 mmHg 63%
    17:00 +16°C° 0 mm 3 m/s 749 mmHg 69%
    18:00 +13°C° 0 mm 3 m/s 749 mmHg 74%
    19:00 +13°C° 0 mm 3 m/s 749 mmHg 75%
    20:00 +12°C° 0 mm 3 m/s 749 mmHg 77%
    21:00 +12°C° 0 mm 3 m/s 749 mmHg 79%
    22:00 +12°C° 0 mm 2 m/s 749 mmHg 82%
    23:00 +12°C° 0 mm 2 m/s 749 mmHg 85%

    20 Octobre, Samedi

    Heure Température Précipitation Vent Pression Humidité
    00:00 +10°C° 0 mm 2 m/s 749 mmHg 88%
    01:00 +10°C° 0 mm 2 m/s 749 mmHg 90%
    02:00 +10°C° 0 mm 2 m/s 749 mmHg 92%
    03:00 +10°C° 0 mm 2 m/s 749 mmHg 93%
    04:00 +10°C° 0 mm 2 m/s 749 mmHg 92%
    05:00 +10°C° 0 mm 2 m/s 749 mmHg 91%
    06:00 +9°C° 0 mm 3 m/s 749 mmHg 90%
    07:00 +9°C° 0 mm 3 m/s 750 mmHg 86%
    08:00 +9°C° 0 mm 3 m/s 750 mmHg 81%
    09:00 +9°C° 0 mm 3 m/s 750 mmHg 77%
    10:00 +10°C° 0 mm 3 m/s 751 mmHg 71%
    11:00 +10°C° 0 mm 3 m/s 751 mmHg 64%
    12:00 +11°C° 0 mm 3 m/s 751 mmHg 58%
    13:00 +11°C° 0 mm 3 m/s 751 mmHg 57%
    14:00 +11°C° 0 mm 3 m/s 751 mmHg 56%
    15:00 +12°C° 0 mm 3 m/s 751 mmHg 56%
    16:00 +10°C° 0 mm 3 m/s 752 mmHg 61%
    17:00 +9°C° 0 mm 2 m/s 752 mmHg 67%
    18:00 +8°C° 0 mm 2 m/s 752 mmHg 73%
    19:00 +7°C° 0 mm 2 m/s 752 mmHg 76%
    20:00 +7°C° 0 mm 2 m/s 753 mmHg 80%
    21:00 +6°C° 0 mm 2 m/s 753 mmHg 84%
    22:00 +6°C° 0 mm 2 m/s 753 mmHg 86%
    23:00 +5°C° 0 mm 2 m/s 753 mmHg 89%

    21 Octobre, Dimanche

    Heure Température Précipitation Vent Pression Humidité
    00:00 +4°C° 0 mm 2 m/s 753 mmHg 91%
    01:00 +4°C° 0 mm 2 m/s 753 mmHg 92%
    02:00 +4°C° 0 mm 2 m/s 754 mmHg 93%
    03:00 +3°C° 0 mm 2 m/s 754 mmHg 94%
    04:00 +4°C° 0 mm 1 m/s 754 mmHg 94%
    05:00 +4°C° 0 mm 1 m/s 754 mmHg 95%
    06:00 +4°C° 0 mm 1 m/s 754 mmHg 95%
    07:00 +5°C° 0 mm 1 m/s 755 mmHg 91%
    08:00 +5°C° 0 mm 1 m/s 755 mmHg 87%
    09:00 +6°C° 0 mm 1 m/s 755 mmHg 83%
    10:00 +7°C° 0 mm 1 m/s 756 mmHg 77%
    11:00 +9°C° 0 mm 1 m/s 756 mmHg 70%
    12:00 +10°C° 0 mm 1 m/s 756 mmHg 64%
    13:00 +10°C° 0 mm 1 m/s 756 mmHg 62%
    14:00 +10°C° 0 mm 1 m/s 756 mmHg 60%
    15:00 +10°C° 0 mm 1 m/s 756 mmHg 58%
    16:00 +9°C° 0 mm 1 m/s 756 mmHg 64%
    17:00 +8°C° 0 mm 1 m/s 756 mmHg 69%
    18:00 +7°C° 0 mm 1 m/s 756 mmHg 74%
    19:00 +6°C° 0 mm 1 m/s 757 mmHg 76%
    20:00 +6°C° 0 mm 1 m/s 757 mmHg 79%
    21:00 +5°C° 0 mm 1 m/s 757 mmHg 81%
    22:00 +5°C° 0 mm 1 m/s 757 mmHg 83%
    23:00 +5°C° 0 mm 1 m/s 757 mmHg 84%

    22 Octobre, Lundi

    Heure Température Précipitation Vent Pression Humidité
    00:00 +5°C° 0 mm 1 m/s 758 mmHg 86%
    01:00 +3°C° 0 mm 0 m/s 757 mmHg 87%
    02:00 +3°C° 0 mm 0 m/s 757 mmHg 88%
    03:00 +3°C° 0 mm 0 m/s 757 mmHg 89%
    04:00 +3°C° 0 mm 0 m/s 757 mmHg 89%
    05:00 +2°C° 0 mm 0 m/s 757 mmHg 90%
    06:00 +2°C° 0 mm 0 m/s 757 mmHg 90%
    07:00 +4°C° 0 mm 1 m/s 757 mmHg 86%
    08:00 +5°C° 0 mm 1 m/s 757 mmHg 82%
    09:00 +6°C° 0 mm 1 m/s 758 mmHg 78%
    10:00 +7°C° 0 mm 1 m/s 757 mmHg 72%
    11:00 +8°C° 0 mm 2 m/s 757 mmHg 66%
    12:00 +9°C° 0 mm 2 m/s 757 mmHg 60%
    13:00 +9°C° 0 mm 3 m/s 756 mmHg 59%
    14:00 +9°C° 0 mm 3 m/s 756 mmHg 58%
    15:00 +10°C° 0 mm 3 m/s 755 mmHg 58%
    16:00 +8°C° 0 mm 3 m/s 755 mmHg 63%
    17:00 +7°C° 0 mm 3 m/s 755 mmHg 69%
    18:00 +6°C° 0 mm 2 m/s 754 mmHg 75%
    19:00 +5°C° 0 mm 3 m/s 754 mmHg 76%
    20:00 +4°C° 0 mm 3 m/s 754 mmHg 77%
    21:00 +4°C° 0 mm 3 m/s 754 mmHg 78%
    22:00 +4°C° 0 mm 3 m/s 753 mmHg 78%
    23:00 +4°C° 0 mm 3 m/s 753 mmHg 79%
    Voir plus